Location: Newark
(25.4800°N, 85.7200°E)
Time: 17:59:52
(UTC+00:00)

Vanguard 1 Rocket - Pass Details

Date: 26 August 2019
Orbit: 650 x 4226 km, 34.3° (Epoch: 13 October)

Event Time Altitude Azimuth Distance (km) Brightness Sun altitude
Rises 18:45:45 0° 256° (WSW) 3,687 - -53.6°
Reaches altitude 10° 18:48:47 10° 260° (W) 2,434 - -53.5°
Maximum altitude 18:53:52 55° 339° (NNW) 807 - -53.2°
Drops below altitude 10° 18:58:10 10° 58° (ENE) 2,053 - -53.0°
Sets 19:00:31 0° 63° (ENE) 3,045 - -52.8°
